Location: Newark
(48.1500°N, 2.9667°W)
Time: 14:38:40
(UTC+00:00)

A-11 Canister half - Pass Details

Date: 27 January 2020
Orbit: 1524 x 1684 km, 47.3° (Epoch: 28 February)

Event Time Altitude Azimuth Distance (km) Brightness Sun altitude
Rises 15:30:02 0° 193° (SSW) 4,659 12.6 11.6°
Reaches altitude 10° 15:33:47 10° 180° (S) 3,681 11.8 11.1°
Maximum altitude 15:40:41 24° 131° (SE) 2,755 10.4 10.3°
Drops below altitude 10° 15:47:39 10° 83° (E) 3,738 10.6 9.4°
Sets 15:51:29 0° 70° (ENE) 4,747 11.0 9.0°
